Hourly Data Report for August 18, 2003

SHERBROOKE A
QUEBEC

45°26'00.000" N
71°41'00.000" W
241.40 m
7028124
71610
YSC

Download Data

Hourly Data (August 2003)
Hourly Data Report for August 18, 2003
TIME
LST
Temp Definition
°C
Dew Point Definition
°C
Rel Hum Definition
%
Precip. Amount Definition
mm

Wind Dir Definition
10's deg

Wind Spd Definition
km/h
Visibility Definition
km
Stn Press Definition
kPa
Hmdx Definition


Wind Chill Definition


Weather Definition


00:00 15.7 14.7 94   9 7 15.0 98.80      
01:00 15.3 14.3 94   6 9 15.0 98.81      
02:00 14.5 13.7 95   9 6 15.0 98.83      
03:00 14.0 13.3 96   7 7 9.7 98.88      
04:00 13.7 13.0 96   9 11 0.8 98.89      
05:00 13.1 12.6 97   9 7 0.3 98.95      
06:00 13.4 12.8 96   9 7 0.3 98.99      
07:00 14.7 14.1 96   6 6 16.1 99.02     Mainly Clear
08:00 16.7 15.1 90   6 4 24.1 99.04     Clear
09:00 19.5 16.3 82     0 24.1 99.05     Mainly Clear
10:00 20.9 16.0 74   24 4 24.1 99.03 26   Mainly Clear
11:00 22.5 15.4 64   29 7 24.1 99.01 27   Mainly Clear
12:00 23.8 15.7 60   31 4 24.1 98.98 28   Mainly Clear
13:00 24.4 15.6 58   32 6 24.1 98.99 29   Mainly Clear
14:00 25.4 13.8 49   32 13 24.1 98.96 29   Mainly Clear
15:00 25.2 14.3 51   33 9 24.1 98.93 29   Mainly Clear
16:00 24.6 12.8 48   32 13 24.1 98.93 27   Mainly Clear
17:00 23.8 12.1 48   31 9 15.0 98.94 26    
18:00 21.7 13.2 58   29 9 15.0 98.96 25    
19:00 16.4 13.5 83     0 15.0 98.98      
20:00 14.0 12.3 89   25 4 15.0 99.03      
21:00 13.1 11.7 91     0 15.0 99.05      
22:00 12.8 11.7 93     0 15.0 99.10      
23:00 11.9 11.1 95   8 4 15.0 99.11      

Notes on Data Quality.

Legend

  • E = Estimated
  • M = Missing
  • NA = Not Available*
  • [empty] = Indicates an unobserved value
Date modified: